| time (UTC) | temp F | wind direction | speed MPH | gust MPH | rain 1hr in | rain 24hr in | rain mn in | humidity % | barometer mb |
| 20260506135313 | 77 | 219 | 6.0 | 8.0 | 0.00 | 0.00 | 0.00 | ||
| 20260506134911 | 77 | 207 | 8.0 | 12.0 | 0.00 | 0.00 | 0.00 | ||
| 20260506134509 | 77 | 186 | 10.0 | 13.0 | 0.00 | 0.00 | 0.00 | ||
| 20260506134108 | 76 | 195 | 8.0 | 14.0 | 0.00 | 0.00 | 0.00 | ||
| 20260506133706 | 76 | 201 | 8.0 | 10.0 | 0.00 | 0.00 | 0.00 | ||
| 20260506133258 | 76 | 200 | 9.0 | 13.0 | 0.00 | 0.00 | 0.00 | ||
| 20260506132855 | 77 | 212 | 6.0 | 10.0 | 0.00 | 0.00 | 0.00 | ||
| 20260506132454 | 77 | 213 | 9.0 | 15.0 | 0.00 | 0.00 | 0.00 | ||
| 20260506132053 | 77 | 236 | 6.0 | 10.0 | 0.00 | 0.00 | 0.00 | ||
| 20260506131652 | 77 | 223 | 7.0 | 10.0 | 0.00 | 0.00 | 0.00 | ||
| 20260506131249 | 79 | 205 | 6.0 | 11.0 | 0.00 | 0.00 | 0.00 | ||
| 20260506130847 | 78 | 212 | 8.0 | 13.0 | 0.00 | 0.00 | 0.00 | ||
| 20260506130447 | 78 | 255 | 7.0 | 10.0 | 0.00 | 0.00 | 0.00 | ||
| 20260506130046 | 78 | 212 | 7.0 | 10.0 | 0.00 | 0.00 | 0.00 | ||
| 20260506125643 | 79 | 148 | 4.0 | 7.0 | 0.00 | 0.00 | 0.00 | ||
| 20260506125235 | 79 | 136 | 6.0 | 8.0 | 0.00 | 0.00 | 0.00 | ||
| 20260506124833 | 81 | 146 | 6.0 | 10.0 | 0.00 | 0.00 | 0.00 | ||
| 20260506124432 | 81 | 189 | 3.0 | 5.0 | 0.00 | 0.00 | 0.00 | ||
| 20260506124031 | 79 | 200 | 3.0 | 6.0 | 0.00 | 0.00 | 0.00 | ||
| 20260506123628 | 79 | 180 | 4.0 | 7.0 | 0.00 | 0.00 | 0.00 | ||
| 20260506123227 | 77 | 201 | 5.0 | 9.0 | 0.00 | 0.00 | 0.00 | ||
| 20260506122825 | 76 | 203 | 5.0 | 10.0 | 0.00 | 0.00 | 0.00 | ||
| 20260506122424 | 77 | 215 | 8.0 | 10.0 | 0.00 | 0.00 | 0.00 | ||
| 20260506122022 | 77 | 224 | 6.0 | 9.0 | 0.00 | 0.00 | 0.00 | ||
| 20260506121620 | 76 | 217 | 8.0 | 11.0 | 0.00 | 0.00 | 0.00 | ||
| 20260506121212 | 76 | 205 | 9.0 | 14.0 | 0.00 | 0.00 | 0.00 | ||
| 20260506120810 | 76 | 219 | 8.0 | 12.0 | 0.00 | 0.00 | 0.00 | ||
| 20260506120408 | 76 | 206 | 8.0 | 13.0 | 0.00 | 0.00 | 0.00 | ||
| 20260506120007 | 76 | 220 | 8.0 | 11.0 | 0.00 | 0.00 | 0.00 | ||
| 20260506115605 | 77 | 228 | 7.0 | 10.0 | 0.00 | 0.00 | 0.00 | ||
| 20260506115204 | 77 | 233 | 11.0 | 15.0 | 0.00 | 0.00 | 0.00 | ||
| 20260506114801 | 77 | 225 | 5.0 | 8.0 | 0.00 | 0.00 | 0.00 | ||
| 20260506114400 | 77 | 213 | 8.0 | 13.0 | 0.00 | 0.00 | 0.00 | ||
| 20260506113959 | 77 | 219 | 8.0 | 13.0 | 0.00 | 0.00 | 0.00 | ||
| 20260506113557 | 77 | 247 | 6.0 | 9.0 | 0.00 | 0.00 | 0.00 | ||
| 20260506113149 | 76 | 230 | 9.0 | 14.0 | 0.00 | 0.00 | 0.00 | ||
| 20260506112746 | 77 | 233 | 9.0 | 14.0 | 0.00 | 0.00 | 0.00 | ||
| 20260506112345 | 77 | 232 | 7.0 | 14.0 | 0.00 | 0.00 | 0.00 | ||
| 20260506111944 | 76 | 273 | 9.0 | 16.0 | 0.00 | 0.00 | 0.00 | ||
| 20260506111542 | 77 | 283 | 9.0 | 18.0 | 0.00 | 0.00 | 0.00 | ||
| 20260506111140 | 77 | 263 | 7.0 | 12.0 | 0.00 | 0.00 | 0.00 | ||
| 20260506110738 | 76 | 251 | 8.0 | 13.0 | 0.00 | 0.00 | 0.00 | ||
| 20260506110337 | 77 | 237 | 7.0 | 9.0 | 0.00 | 0.00 | 0.00 | ||
| 20260506105936 | 75 | 227 | 9.0 | 14.0 | 0.00 | 0.00 | 0.00 | ||
| 20260506105533 | 76 | 252 | 3.0 | 5.0 | 0.00 | 0.00 | 0.00 | ||
| 20260506105125 | 76 | 228 | 7.0 | 13.0 | 0.00 | 0.00 | 0.00 | ||
| 20260506104723 | 75 | 236 | 7.0 | 10.0 | 0.00 | 0.00 | 0.00 | ||
| 20260506104322 | 75 | 231 | 8.0 | 12.0 | 0.00 | 0.00 | 0.00 | ||
| 20260506103920 | 74 | 255 | 8.0 | 10.0 | 0.00 | 0.00 | 0.00 | ||
| 20260506103518 | 75 | 227 | 4.0 | 7.0 | 0.00 | 0.00 | 0.00 | ||
| 20260506103117 | 75 | 222 | 7.0 | 13.0 | 0.00 | 0.00 | 0.00 | ||
| 20260506102716 | 75 | 249 | 5.0 | 9.0 | 0.00 | 0.00 | 0.00 | ||
| 20260506102315 | 74 | 282 | 8.0 | 10.0 | 0.00 | 0.00 | 0.00 | ||
| 20260506101912 | 76 | 257 | 4.0 | 8.0 | 0.00 | 0.00 | 0.00 | ||
| 20260506101511 | 75 | 250 | 6.0 | 10.0 | 0.00 | 0.00 | 0.00 | ||
| 20260506101103 | 75 | 267 | 6.0 | 9.0 | 0.00 | 0.00 | 0.00 | ||
| 20260506100701 | 75 | 258 | 8.0 | 10.0 | 0.00 | 0.00 | 0.00 | ||
| 20260506100259 | 76 | 279 | 7.0 | 12.0 | 0.00 | 0.00 | 0.00 | ||
| 20260506095858 | 75 | 236 | 5.0 | 9.0 | 0.00 | 0.00 | 0.00 | ||
| 20260506095456 | 74 | 233 | 7.0 | 12.0 | 0.00 | 0.00 | 0.00 | ||
| 20260506095055 | 75 | 211 | 7.0 | 11.0 | 0.00 | 0.00 | 0.00 | ||
| 20260506094652 | 75 | 241 | 6.0 | 9.0 | 0.00 | 0.00 | 0.00 | ||
| 20260506094251 | 75 | 266 | 6.0 | 12.0 | 0.00 | 0.00 | 0.00 | ||
| 20260506093850 | 77 | 255 | 5.0 | 8.0 | 0.00 | 0.00 | 0.00 | ||
| 20260506093448 | 74 | 256 | 9.0 | 14.0 | 0.00 | 0.00 | 0.00 | ||
| 20260506093039 | 74 | 270 | 8.0 | 10.0 | 0.00 | 0.00 | 0.00 | ||
| 20260506092637 | 73 | 269 | 6.0 | 11.0 | 0.00 | 0.00 | 0.00 | ||
| 20260506092236 | 73 | 212 | 7.0 | 11.0 | 0.00 | 0.00 | 0.00 | ||
| 20260506091835 | 74 | 223 | 7.0 | 10.0 | 0.00 | 0.00 | 0.00 | ||
| 20260506091433 | 74 | 271 | 9.0 | 13.0 | 0.00 | 0.00 | 0.00 | ||
| 20260506091031 | 74 | 256 | 8.0 | 13.0 | 0.00 | 0.00 | 0.00 | ||
| 20260506090629 | 74 | 250 | 6.0 | 11.0 | 0.00 | 0.00 | 0.00 | ||
| 20260506090228 | 73 | 243 | 9.0 | 14.0 | 0.00 | 0.00 | 0.00 | ||
| 20260506085827 | 73 | 211 | 7.0 | 14.0 | 0.00 | 0.00 | 0.00 | ||
| 20260506085423 | 73 | 211 | 7.0 | 11.0 | 0.00 | 0.00 | 0.00 | ||
| 20260506085016 | 73 | 233 | 8.0 | 13.0 | 0.00 | 0.00 | 0.00 | ||
| 20260506084614 | 73 | 277 | 8.0 | 11.0 | 0.00 | 0.00 | 0.00 | ||
| 20260506084212 | 72 | 255 | 9.0 | 16.0 | 0.00 | 0.00 | 0.00 | ||
| 20260506083810 | 72 | 284 | 7.0 | 10.0 | 0.00 | 0.00 | 0.00 | ||
| 20260506083408 | 72 | 256 | 6.0 | 12.0 | 0.00 | 0.00 | 0.00 | ||
| 20260506083007 | 72 | 252 | 8.0 | 14.0 | 0.00 | 0.00 | 0.00 | ||
| 20260506082605 | 73 | 246 | 7.0 | 14.0 | 0.00 | 0.00 | 0.00 | ||
| 20260506082203 | 73 | 206 | 4.0 | 6.0 | 0.00 | 0.00 | 0.00 | ||
| 20260506081802 | 72 | 236 | 6.0 | 8.0 | 0.00 | 0.00 | 0.00 | ||
| 20260506081400 | 71 | 242 | 9.0 | 13.0 | 0.00 | 0.00 | 0.00 | ||
| 20260506080952 | 71 | 258 | 7.0 | 9.0 | 0.00 | 0.00 | 0.00 | ||
| 20260506080550 | 72 | 233 | 6.0 | 12.0 | 0.00 | 0.00 | 0.00 | ||
| 20260506080148 | 71 | 200 | 8.0 | 14.0 | 0.00 | 0.00 | 0.00 | ||
| 20260506073337 | 70 | 235 | 8.0 | 11.0 | 0.00 | 0.00 | 0.00 | ||
| 20260506072928 | 70 | 239 | 9.0 | 15.0 | 0.00 | 0.00 | 0.00 | ||
| 20260506072526 | 71 | 213 | 5.0 | 7.0 | 0.00 | 0.00 | 0.00 | ||
| 20260506072125 | 71 | 209 | 5.0 | 10.0 | 0.00 | 0.00 | 0.00 | ||
| 20260506071724 | 70 | 211 | 7.0 | 12.0 | 0.00 | 0.00 | 0.00 | ||
| 20260506071321 | 70 | 208 | 11.0 | 16.0 | 0.00 | 0.00 | 0.00 | ||
| 20260506070920 | 74 | 225 | 7.0 | 12.0 | 0.00 | 0.00 | 0.00 | ||
| 20260506070518 | 76 | 231 | 9.0 | 15.0 | 0.00 | 0.00 | 0.00 | ||
| 20260506070117 | 73 | 229 | 7.0 | 10.0 | 0.00 | 0.00 | 0.00 | ||
| 20260506062456 | 69 | 200 | 6.0 | 9.0 | 0.00 | 0.00 | 0.00 | ||
| 20260506062054 | 70 | 209 | 6.0 | 10.0 | 0.00 | 0.00 | 0.00 | ||
| 20260506061653 | 70 | 168 | 7.0 | 10.0 | 0.00 | 0.00 | 0.00 | ||
| 20260506061251 | 70 | 153 | 4.0 | 8.0 | 0.00 | 0.00 | 0.00 | ||
| 20260506060843 | 69 | 146 | 8.0 | 11.0 | 0.00 | 0.00 | 0.00 | ||
| 20260506060440 | 69 | 142 | 8.0 | 14.0 | 0.00 | 0.00 | 0.00 | ||
| 20260506051213 | 66 | 152 | 9.0 | 17.0 | 0.00 | 0.00 | 0.00 | ||
| 20260506050812 | 66 | 157 | 8.0 | 11.0 | 0.00 | 0.00 | 0.00 | ||
| 20260506050410 | 65 | 163 | 10.0 | 16.0 | 0.00 | 0.00 | 0.00 | ||
| 20260506044355 | 64 | 144 | 9.0 | 16.0 | 0.00 | 0.00 | 0.00 | ||
| 20260506043954 | 65 | 132 | 6.0 | 8.0 | 0.00 | 0.00 | 0.00 | ||
| 20260506043552 | 64 | 137 | 7.0 | 9.0 | 0.00 | 0.00 | 0.00 | ||
| 20260506043150 | 65 | 184 | 5.0 | 9.0 | 0.00 | 0.00 | 0.00 | ||
| 20260506042749 | 64 | 157 | 4.0 | 7.0 | 0.00 | 0.00 | 0.00 | ||
| 20260506042347 | 64 | 181 | 8.0 | 16.0 | 0.00 | 0.00 | 0.00 | ||
| 20260506041945 | 64 | 176 | 10.0 | 15.0 | 0.00 | 0.00 | 0.00 | ||
| 20260506041544 | 63 | 165 | 9.0 | 14.0 | 0.00 | 0.00 | 0.00 | ||
| 20260506041142 | 63 | 167 | 9.0 | 14.0 | 0.00 | 0.00 | 0.00 | ||
| 20260506040734 | 63 | 152 | 8.0 | 12.0 | 0.00 | 0.00 | 0.00 | ||
| 20260506040331 | 63 | 161 | 7.0 | 11.0 | 0.00 | 0.00 | 0.00 | ||
| 20260506035930 | 63 | 153 | 8.0 | 11.0 | 0.00 | 0.00 | 0.00 | ||
| 20260506035529 | 63 | 147 | 8.0 | 11.0 | 0.00 | 0.00 | 0.00 | ||
| 20260506035127 | 63 | 152 | 8.0 | 10.0 | 0.00 | 0.00 | 0.00 | ||
| 20260506034725 | 62 | 144 | 7.0 | 12.0 | 0.00 | 0.00 | 0.00 | ||
| 20260506034323 | 62 | 146 | 5.0 | 9.0 | 0.00 | 0.00 | 0.00 | ||
| 20260506033922 | 62 | 156 | 7.0 | 10.0 | 0.00 | 0.00 | 0.00 | ||
| 20260506033522 | 63 | 137 | 5.0 | 10.0 | 0.00 | 0.00 | 0.00 | ||
| 20260506033120 | 63 | 144 | 4.0 | 5.0 | 0.00 | 0.00 | 0.00 | ||
| 20260506032711 | 63 | 133 | 4.0 | 7.0 | 0.00 | 0.00 | 0.00 | ||
| 20260506032309 | 63 | 151 | 7.0 | 11.0 | 0.00 | 0.00 | 0.00 | ||
| 20260506031908 | 63 | 157 | 5.0 | 8.0 | 0.00 | 0.00 | 0.00 | ||
| 20260506031507 | 63 | 151 | 5.0 | 9.0 | 0.00 | 0.00 | 0.00 | ||
| 20260506031104 | 63 | 157 | 5.0 | 9.0 | 0.00 | 0.00 | 0.00 | ||
| 20260506030703 | 63 | 155 | 5.0 | 8.0 | 0.00 | 0.00 | 0.00 | ||
| 20260506030301 | 63 | 170 | 8.0 | 11.0 | 0.00 | 0.00 | 0.00 | ||
| 20260506025900 | 63 | 185 | 8.0 | 11.0 | 0.00 | 0.00 | 0.00 | ||
| 20260506025458 | 63 | 163 | 5.0 | 8.0 | 0.00 | 0.00 | 0.00 | ||
| 20260506025056 | 64 | 162 | 4.0 | 7.0 | 0.00 | 0.00 | 0.00 | ||
| 20260506024648 | 64 | 164 | 9.0 | 12.0 | 0.00 | 0.00 | 0.00 | ||
| 20260506024246 | 64 | 161 | 6.0 | 10.0 | 0.00 | 0.00 | 0.00 | ||
| 20260506023844 | 63 | 178 | 5.0 | 8.0 | 0.00 | 0.00 | 0.00 | ||
| 20260506023443 | 64 | 165 | 5.0 | 8.0 | 0.00 | 0.00 | 0.00 | ||
| 20260506023041 | 64 | 186 | 6.0 | 10.0 | 0.00 | 0.00 | 0.00 | ||
| 20260506022640 | 65 | 200 | 5.0 | 8.0 | 0.00 | 0.00 | 0.00 | ||
| 20260506022239 | 64 | 224 | 7.0 | 11.0 | 0.00 | 0.00 | 0.00 | ||
| 20260506021836 | 64 | 227 | 4.0 | 7.0 | 0.00 | 0.00 | 0.00 | ||
| 20260506021435 | 64 | 192 | 6.0 | 9.0 | 0.00 | 0.00 | 0.00 | ||
| 20260506021034 | 64 | 170 | 11.0 | 15.0 | 0.00 | 0.00 | 0.00 | ||
| 20260506020626 | 64 | 174 | 12.0 | 17.0 | 0.00 | 0.00 | 0.00 | ||
| 20260506020223 | 64 | 184 | 8.0 | 14.0 | 0.00 | 0.00 | 0.00 | ||
| 20260506015822 | 64 | 173 | 8.0 | 13.0 | 0.00 | 0.00 | 0.00 | ||
| 20260506015421 | 65 | 165 | 10.0 | 16.0 | 0.00 | 0.00 | 0.00 | ||
| 20260506015019 | 65 | 170 | 12.0 | 19.0 | 0.00 | 0.00 | 0.00 | ||
| 20260506014617 | 65 | 162 | 10.0 | 19.0 | 0.00 | 0.00 | 0.00 | ||
| 20260506014215 | 64 | 170 | 13.0 | 18.0 | 0.00 | 0.00 | 0.00 | ||
| 20260506013814 | 65 | 170 | 9.0 | 14.0 | 0.00 | 0.00 | 0.00 | ||
| 20260506013010 | 65 | 194 | 9.0 | 11.0 | 0.00 | 0.00 | 0.00 | ||
| 20260506012200 | 65 | 191 | 12.0 | 17.0 | 0.00 | 0.00 | 0.00 | ||
| 20260506011759 | 64 | 184 | 11.0 | 18.0 | 0.00 | 0.00 | 0.00 | ||
| 20260506011358 | 64 | 164 | 10.0 | 15.0 | 0.00 | 0.00 | 0.00 | ||
| 20260506010955 | 64 | 166 | 12.0 | 17.0 | 0.00 | 0.00 | 0.00 | ||
| 20260506010554 | 64 | 150 | 11.0 | 16.0 | 0.00 | 0.00 | 0.00 | ||
| 20260506010152 | 65 | 151 | 12.0 | 21.0 | 0.00 | 0.00 | 0.00 | ||
| 20260506005751 | 65 | 152 | 10.0 | 16.0 | 0.00 | 0.00 | 0.00 | ||
| 20260506005349 | 65 | 155 | 11.0 | 16.0 | 0.00 | 0.00 | 0.00 | ||
| 20260506004947 | 65 | 169 | 12.0 | 18.0 | 0.00 | 0.00 | 0.00 | ||
| 20260506004539 | 65 | 158 | 11.0 | 17.0 | 0.00 | 0.00 | 0.00 | ||
| 20260506004138 | 65 | 152 | 14.0 | 23.0 | 0.00 | 0.00 | 0.00 | ||
| 20260506003735 | 65 | 151 | 11.0 | 17.0 | 0.00 | 0.00 | 0.00 | ||
| 20260506003334 | 65 | 151 | 12.0 | 20.0 | 0.00 | 0.00 | 0.00 | ||
| 20260506002933 | 65 | 143 | 14.0 | 17.0 | 0.00 | 0.00 | 0.00 | ||
| 20260506002532 | 65 | 149 | 10.0 | 14.0 | 0.00 | 0.00 | 0.00 | ||
| 20260506002129 | 65 | 152 | 9.0 | 15.0 | 0.00 | 0.00 | 0.00 | ||
| 20260506001728 | 65 | 153 | 11.0 | 18.0 | 0.00 | 0.00 | 0.00 | ||
| 20260506001327 | 65 | 163 | 8.0 | 12.0 | 0.00 | 0.00 | 0.00 | ||
| 20260506000925 | 65 | 169 | 13.0 | 22.0 | 0.00 | 0.00 | 0.00 | ||
| 20260506000517 | 65 | 181 | 13.0 | 18.0 | 0.00 | 0.00 | 0.00 | ||
| 20260506000114 | 66 | 176 | 11.0 | 16.0 | 0.00 | 0.00 | 0.00 | ||
| 20260505235713 | 66 | 168 | 13.0 | 20.0 | 0.00 | 0.00 | 0.00 | ||
| 20260505235312 | 66 | 178 | 12.0 | 19.0 | 0.00 | 0.00 | 0.00 | ||
| 20260505234910 | 66 | 168 | 14.0 | 22.0 | 0.00 | 0.00 | 0.00 | ||
| 20260505234508 | 66 | 165 | 13.0 | 20.0 | 0.00 | 0.00 | 0.00 | ||
| 20260505234106 | 66 | 187 | 15.0 | 22.0 | 0.00 | 0.00 | 0.00 | ||
| 20260505233705 | 66 | 176 | 15.0 | 22.0 | 0.00 | 0.00 | 0.00 | ||
| 20260505233304 | 66 | 183 | 15.0 | 22.0 | 0.00 | 0.00 | 0.00 | ||
| 20260505232901 | 66 | 175 | 13.0 | 18.0 | 0.00 | 0.00 | 0.00 | ||
| 20260505232453 | 66 | 171 | 12.0 | 18.0 | 0.00 | 0.00 | 0.00 | ||
| 20260505232051 | 67 | 181 | 11.0 | 14.0 | 0.00 | 0.00 | 0.00 | ||
| 20260505231650 | 67 | 175 | 15.0 | 20.0 | 0.00 | 0.00 | 0.00 | ||
| 20260505231248 | 67 | 180 | 15.0 | 20.0 | 0.00 | 0.00 | 0.00 | ||
| 20260505230846 | 67 | 156 | 10.0 | 15.0 | 0.00 | 0.00 | 0.00 | ||
| 20260505230445 | 67 | 153 | 12.0 | 17.0 | 0.00 | 0.00 | 0.00 | ||
| 20260505230043 | 67 | 167 | 11.0 | 16.0 | 0.00 | 0.00 | 0.00 | ||
| 20260505225642 | 67 | 178 | 11.0 | 16.0 | 0.00 | 0.00 | 0.00 | ||
| 20260505225240 | 67 | 166 | 9.0 | 12.0 | 0.00 | 0.00 | 0.00 | ||
| 20260505224839 | 67 | 156 | 8.0 | 12.0 | 0.00 | 0.00 | 0.00 | ||
| 20260505224431 | 67 | 177 | 6.0 | 11.0 | 0.00 | 0.00 | 0.00 | ||
| 20260505224029 | 67 | 157 | 4.0 | 9.0 | 0.00 | 0.00 | 0.00 | ||
| 20260505223626 | 67 | 177 | 8.0 | 10.0 | 0.00 | 0.00 | 0.00 | ||
| 20260505223225 | 68 | 181 | 9.0 | 13.0 | 0.00 | 0.00 | 0.00 | ||
| 20260505222824 | 68 | 164 | 13.0 | 18.0 | 0.00 | 0.00 | 0.00 | ||
| 20260505222423 | 68 | 151 | 12.0 | 21.0 | 0.00 | 0.00 | 0.00 | ||
| 20260505222020 | 68 | 167 | 9.0 | 12.0 | 0.00 | 0.00 | 0.00 | ||
| 20260505221618 | 68 | 176 | 9.0 | 13.0 | 0.00 | 0.00 | 0.00 | ||
| 20260505221217 | 68 | 152 | 11.0 | 15.0 | 0.00 | 0.00 | 0.00 | ||
| 20260505220815 | 68 | 173 | 12.0 | 18.0 | 0.00 | 0.00 | 0.00 | ||
| 20260505220405 | 68 | 165 | 9.0 | 11.0 | 0.00 | 0.00 | 0.00 | ||
| 20260505220004 | 68 | 153 | 8.0 | 16.0 | 0.00 | 0.00 | 0.00 | ||
| 20260505215602 | 68 | 171 | 13.0 | 19.0 | 0.00 | 0.00 | 0.00 | ||
| 20260505215202 | 68 | 154 | 10.0 | 13.0 | 0.00 | 0.00 | 0.00 | ||
| 20260505214800 | 68 | 166 | 9.0 | 13.0 | 0.00 | 0.00 | 0.00 | ||
| 20260505214358 | 68 | 164 | 16.0 | 21.0 | 0.00 | 0.00 | 0.00 | ||
| 20260505213956 | 68 | 152 | 11.0 | 17.0 | 0.00 | 0.00 | 0.00 | ||
| 20260505213555 | 68 | 151 | 10.0 | 16.0 | 0.00 | 0.00 | 0.00 | ||
| 20260505213154 | 68 | 151 | 11.0 | 15.0 | 0.00 | 0.00 | 0.00 | ||
| 20260505212751 | 68 | 143 | 9.0 | 16.0 | 0.00 | 0.00 | 0.00 | ||
| 20260505212343 | 68 | 150 | 8.0 | 13.0 | 0.00 | 0.00 | 0.00 | ||
| 20260505211941 | 68 | 158 | 10.0 | 13.0 | 0.00 | 0.00 | 0.00 | ||
| 20260505211540 | 68 | 148 | 9.0 | 11.0 | 0.00 | 0.00 | 0.00 | ||
| 20260505211138 | 68 | 150 | 10.0 | 14.0 | 0.00 | 0.00 | 0.00 | ||
| 20260505210736 | 68 | 154 | 8.0 | 13.0 | 0.00 | 0.00 | 0.00 | ||
| 20260505210335 | 69 | 151 | 7.0 | 12.0 | 0.00 | 0.00 | 0.00 | ||
| 20260505205933 | 69 | 148 | 10.0 | 14.0 | 0.00 | 0.00 | 0.00 | ||
| 20260505205531 | 69 | 173 | 11.0 | 16.0 | 0.00 | 0.00 | 0.00 | ||
| 20260505205130 | 69 | 178 | 11.0 | 14.0 | 0.00 | 0.00 | 0.00 | ||
| 20260505204728 | 70 | 182 | 14.0 | 20.0 | 0.00 | 0.00 | 0.00 | ||
| 20260505204320 | 69 | 175 | 11.0 | 18.0 | 0.00 | 0.00 | 0.00 | ||
| 20260505203918 | 70 | 186 | 11.0 | 16.0 | 0.00 | 0.00 | 0.00 | ||
| 20260505203516 | 70 | 161 | 14.0 | 18.0 | 0.00 | 0.00 | 0.00 | ||
| 20260505203115 | 70 | 192 | 12.0 | 20.0 | 0.00 | 0.00 | 0.00 | ||
| 20260505202713 | 70 | 193 | 12.0 | 20.0 | 0.00 | 0.00 | 0.00 | ||
| 20260505202312 | 70 | 172 | 11.0 | 15.0 | 0.00 | 0.00 | 0.00 | ||
| 20260505201910 | 70 | 193 | 8.0 | 12.0 | 0.00 | 0.00 | 0.00 | ||
| 20260505201509 | 70 | 181 | 11.0 | 15.0 | 0.00 | 0.00 | 0.00 | ||
| 20260505201108 | 71 | 196 | 13.0 | 25.0 | 0.00 | 0.00 | 0.00 | ||
| 20260505200706 | 70 | 172 | 16.0 | 23.0 | 0.00 | 0.00 | 0.00 | ||
| 20260505200257 | 71 | 196 | 12.0 | 19.0 | 0.00 | 0.00 | 0.00 | ||
| 20260505195855 | 71 | 176 | 10.0 | 19.0 | 0.00 | 0.00 | 0.00 | ||
| 20260505195454 | 71 | 194 | 9.0 | 12.0 | 0.00 | 0.00 | 0.00 | ||
| 20260505195053 | 71 | 173 | 10.0 | 16.0 | 0.00 | 0.00 | 0.00 | ||
| 20260505194650 | 71 | 192 | 9.0 | 12.0 | 0.00 | 0.00 | 0.00 | ||
| 20260505194249 | 71 | 180 | 11.0 | 17.0 | 0.00 | 0.00 | 0.00 | ||
| 20260505193847 | 71 | 163 | 11.0 | 14.0 | 0.00 | 0.00 | 0.00 | ||
| 20260505193446 | 71 | 170 | 9.0 | 17.0 | 0.00 | 0.00 | 0.00 | ||
| 20260505193045 | 71 | 173 | 9.0 | 12.0 | 0.00 | 0.00 | 0.00 | ||
| 20260505192642 | 71 | 164 | 6.0 | 10.0 | 0.00 | 0.00 | 0.00 | ||
| 20260505192234 | 72 | 180 | 6.0 | 9.0 | 0.00 | 0.00 | 0.00 | ||
| 20260505191832 | 72 | 177 | 9.0 | 18.0 | 0.00 | 0.00 | 0.00 | ||
| 20260505191431 | 72 | 162 | 5.0 | 8.0 | 0.00 | 0.00 | 0.00 | ||
| 20260505191029 | 72 | 186 | 9.0 | 12.0 | 0.00 | 0.00 | 0.00 | ||
| 20260505190627 | 73 | 187 | 9.0 | 12.0 | 0.00 | 0.00 | 0.00 | ||
| 20260505190226 | 73 | 173 | 8.0 | 12.0 | 0.00 | 0.00 | 0.00 | ||
| 20260505185825 | 73 | 182 | 9.0 | 11.0 | 0.00 | 0.00 | 0.00 | ||
| 20260505185422 | 73 | 184 | 10.0 | 16.0 | 0.00 | 0.00 | 0.00 | ||
| 20260505185021 | 73 | 202 | 13.0 | 18.0 | 0.00 | 0.00 | 0.00 | ||
| 20260505184620 | 73 | 182 | 10.0 | 16.0 | 0.00 | 0.00 | 0.00 | ||
| 20260505184212 | 73 | 178 | 10.0 | 12.0 | 0.00 | 0.00 | 0.00 | ||
| 20260505183809 | 73 | 183 | 7.0 | 10.0 | 0.00 | 0.00 | 0.00 | ||
| 20260505183408 | 73 | 195 | 10.0 | 14.0 | 0.00 | 0.00 | 0.00 | ||
| 20260505183007 | 73 | 187 | 7.0 | 9.0 | 0.00 | 0.00 | 0.00 | ||
| 20260505182605 | 73 | 189 | 9.0 | 13.0 | 0.00 | 0.00 | 0.00 | ||
| 20260505182204 | 73 | 177 | 8.0 | 12.0 | 0.00 | 0.00 | 0.00 | ||
| 20260505181801 | 73 | 183 | 8.0 | 11.0 | 0.00 | 0.00 | 0.00 | ||
| 20260505181400 | 74 | 177 | 9.0 | 14.0 | 0.00 | 0.00 | 0.00 | ||
| 20260505180959 | 74 | 187 | 8.0 | 11.0 | 0.00 | 0.00 | 0.00 | ||
| 20260505180557 | 74 | 182 | 11.0 | 16.0 | 0.00 | 0.00 | 0.00 | ||
| 20260505180148 | 74 | 175 | 11.0 | 15.0 | 0.00 | 0.00 | 0.00 | ||
| 20260505175746 | 74 | 175 | 11.0 | 16.0 | 0.00 | 0.00 | 0.00 | ||
| 20260505175345 | 74 | 175 | 10.0 | 14.0 | 0.00 | 0.00 | 0.00 | ||
| 20260505174944 | 74 | 166 | 10.0 | 16.0 | 0.00 | 0.00 | 0.00 | ||
| 20260505174541 | 74 | 168 | 10.0 | 13.0 | 0.00 | 0.00 | 0.00 | ||
| 20260505174140 | 74 | 165 | 10.0 | 14.0 | 0.00 | 0.00 | 0.00 | ||
| 20260505173738 | 75 | 158 | 13.0 | 21.0 | 0.00 | 0.00 | 0.00 | ||
| 20260505173337 | 75 | 169 | 11.0 | 17.0 | 0.00 | 0.00 | 0.00 | ||
| 20260505172935 | 75 | 192 | 9.0 | 16.0 | 0.00 | 0.00 | 0.00 | ||
| 20260505172533 | 75 | 186 | 11.0 | 18.0 | 0.00 | 0.00 | 0.00 | ||
| 20260505172126 | 76 | 200 | 6.0 | 8.0 | 0.00 | 0.00 | 0.00 | ||
| 20260505171723 | 76 | 185 | 7.0 | 11.0 | 0.00 | 0.00 | 0.00 | ||
| 20260505171322 | 76 | 200 | 10.0 | 14.0 | 0.00 | 0.00 | 0.00 | ||
| 20260505170920 | 76 | 187 | 11.0 | 15.0 | 0.00 | 0.00 | 0.00 | ||
| 20260505170518 | 76 | 183 | 9.0 | 12.0 | 0.00 | 0.00 | 0.00 | ||
| 20260505165716 | 76 | 202 | 12.0 | 20.0 | 0.00 | 0.00 | 0.00 | ||
| 20260505165313 | 77 | 182 | 11.0 | 14.0 | 0.00 | 0.00 | 0.00 | ||
| 20260505164511 | 77 | 182 | 13.0 | 19.0 | 0.00 | 0.00 | 0.00 | ||
| 20260505164103 | 77 | 188 | 12.0 | 20.0 | 0.00 | 0.00 | 0.00 | ||
| 20260505163700 | 77 | 178 | 17.0 | 23.0 | 0.00 | 0.00 | 0.00 | ||
| 20260505163259 | 78 | 170 | 18.0 | 28.0 | 0.00 | 0.00 | 0.00 | ||
| 20260505162858 | 80 | 161 | 13.0 | 22.0 | 0.00 | 0.00 | 0.00 | ||
| 20260505162456 | 80 | 176 | 10.0 | 14.0 | 0.00 | 0.00 | 0.00 | ||
| 20260505162054 | 80 | 185 | 14.0 | 19.0 | 0.00 | 0.00 | 0.00 | ||
| 20260505161652 | 81 | 169 | 12.0 | 19.0 | 0.00 | 0.00 | 0.00 | ||
| 20260505161251 | 81 | 186 | 14.0 | 18.0 | 0.00 | 0.00 | 0.00 | ||
| 20260505160850 | 82 | 169 | 14.0 | 17.0 | 0.00 | 0.00 | 0.00 | ||
| 20260505160448 | 81 | 180 | 11.0 | 15.0 | 0.00 | 0.00 | 0.00 | ||
| 20260505153228 | 80 | 172 | 14.0 | 19.0 | 0.00 | 0.00 | 0.00 | ||
| 20260505152826 | 80 | 171 | 16.0 | 22.0 | 0.00 | 0.00 | 0.00 | ||
| 20260505152424 | 80 | 163 | 13.0 | 23.0 | 0.00 | 0.00 | 0.00 | ||
| 20260505152016 | 79 | 165 | 20.0 | 31.0 | 0.00 | 0.00 | 0.00 | ||
| 20260505151615 | 80 | 145 | 17.0 | 29.0 | 0.00 | 0.00 | 0.00 | ||
| 20260505151212 | 80 | 163 | 15.0 | 23.0 | 0.00 | 0.00 | 0.00 | ||
| 20260505150811 | 80 | 171 | 18.0 | 25.0 | 0.00 | 0.00 | 0.00 | ||
| 20260505150409 | 81 | 160 | 15.0 | 21.0 | 0.00 | 0.00 | 0.00 | ||
| 20260505140337 | 79 | 162 | 11.0 | 21.0 | 0.00 | 0.00 | 0.00 |